Weather in Tit-Ary

Russia / Sakha (Yakutia) Republic     61°13′28″N   127°43′46″E
temp.,
°C
wind,
m/s
gust,
m/s
humid.,
%
clouds,
%
prec.,
mm/h
press.,
hPa
HPBL,
m
20 september, mon
mon2000:000wnw412845 0.0 1010544
03:00−2w310935 0.0 1011424
06:00−2w4118799 0.0 1012525
09:00+1wnw587079 0.0 1012804
12:00+3wnw4667100 0.0 10131062
15:00+4nw3563100 0.0 10131141
18:00+3wnw2372100 0.0 1015100
21:00+2wnw1175100 0.0 101615
21 september, tue
tue2100:00+2wnw0074100 0.0 101610
03:00+2sw1176100 0.0 101711
06:00+1sse118227 0.0 101819
09:00+4se24675 0.0 1018483
12:00+8se34555 0.0 1017965
15:00+9se45525 0.0 10161011
18:00+6ese387066 0.0 1016195
21:00+2ese31084100 0.0 1017231
22 september, wed
wed2200:000ese210919 0.0 1018223
03:000ese310925 0.0 1018251
06:000ese312895 0.0 1018318
09:00+6se412627 0.0 1017456
12:00+11se584529 0.0 1016603
15:00+13se47465 0.0 1016717
18:00+9ese27685 0.0 1017129
21:00+5ese23785 0.0 101844
23 september, thu
thu2300:00+4ese23815 0.0 101946
03:00+3se228026 0.0 101927
06:00+3sse2284100 0.0 102018
09:00+8sw3874100 0.0 1021336
12:00+9w3685100 0.0 1022606
15:00+9w3580100 0.0 1023726
18:00+7nw2484100 0.0 1024173
21:00+5nw1489100 0.0 1025200
24 september, fri
fri2400:00+5nnw1191100 0.0 102538
03:00+5ne1291100 0.0 102496
06:00+4ene2393100 0.0 1024134
09:00+6e2485100 0.0 1023305
12:00+10ese3474100 0.0 1021758
15:00+12ese2464100 0.0 10191012
18:00+8wsw2695100 0.7 1020289
21:00+6wsw3792100 0.8 1022641